Location: Partizánske
(48.6285°N, 18.3769°E)
Time: 18:22:14
(UTC+02:00)

A-11 Canister half - All Passes

Search period start: 29 June 2022 00:00
Search period end: 09 July 2022 00:00
Orbit: 1513 x 1687 km, 47.2° (Epoch: 28 June)

Date Brightness Start Highest point End Pass type
(mag) Time Alt. Az. Time Alt. Az. Time Alt. Az.
29 Jun - 00:19:58 10° SW 00:29:59 66° SSE 00:39:46 10° ENE visible
29 Jun - 02:24:44 10° W 02:34:52 84° S 02:44:39 10° E visible
29 Jun - 04:29:52 10° WNW 04:39:38 63° SSW 04:49:02 10° SE daylight
29 Jun - 06:35:28 10° W 06:43:14 28° SW 06:50:48 10° S daylight
29 Jun - 21:55:01 10° S 22:03:15 29° SE 22:11:26 10° E visible
29 Jun - 23:57:03 10° SW 00:07:03 64° SSE 00:16:50 10° ENE visible
30 Jun - 02:01:44 10° W 02:11:54 84° S 02:21:44 10° E visible
30 Jun - 04:06:53 10° WNW 04:16:43 65° SSW 04:26:12 10° SE visible
30 Jun - 06:12:25 10° W 06:20:24 30° SW 06:28:11 10° S daylight
30 Jun - 21:32:21 10° S 21:40:24 28° SE 21:48:24 10° E visible
30 Jun - 23:34:09 10° SW 23:44:07 62° SSE 23:53:54 10° ENE visible
01 Jul - 01:38:46 10° W 01:48:56 84° S 01:58:47 10° E visible
01 Jul - 03:43:54 10° WNW 03:53:48 67° SSW 04:03:20 10° ESE visible
01 Jul - 05:49:21 10° WNW 05:57:34 31° SW 06:05:32 10° SSE daylight
01 Jul - 21:09:43 10° S 21:17:33 26° SE 21:25:20 10° E daylight
01 Jul - 23:11:16 10° SW 23:21:12 61° SSE 23:30:58 10° ENE visible
02 Jul - 01:15:47 10° W 01:25:59 83° S 01:35:52 10° E visible
02 Jul - 03:20:56 10° W 03:30:53 69° SSW 03:40:28 10° ESE visible
02 Jul - 05:26:19 10° WNW 05:34:44 33° SW 05:42:53 10° SSE daylight
02 Jul - 20:47:06 10° S 20:54:42 25° SE 21:02:15 10° E daylight
02 Jul - 22:48:23 10° SW 22:58:16 59° SSE 23:08:01 10° ENE visible
03 Jul - 00:52:48 10° W 01:03:00 83° S 01:12:56 10° E visible
03 Jul - 02:57:56 10° W 03:07:56 71° SSW 03:17:35 10° ESE visible
03 Jul - 05:03:17 10° WNW 05:11:53 35° SW 05:20:13 10° SSE daylight
03 Jul - 20:24:32 10° S 20:31:51 23° SE 20:39:10 10° E daylight
03 Jul - 22:25:30 10° SW 22:35:20 57° SSE 22:45:04 10° ENE visible
04 Jul - 00:29:50 10° W 00:40:03 83° S 00:50:00 10° E visible
04 Jul - 02:34:58 10° W 02:45:01 72° SSW 02:54:42 10° ESE visible
04 Jul - 04:40:16 10° WNW 04:49:01 37° SW 04:57:31 10° SSE daylight
04 Jul - 20:02:00 10° S 20:09:02 22° SE 20:16:02 10° E daylight
04 Jul - 22:02:38 10° SW 22:12:25 55° SSE 22:22:07 10° ENE visible
05 Jul - 00:06:51 10° WSW 00:17:05 82° S 00:27:04 10° E visible
05 Jul - 02:11:59 10° W 02:22:04 74° SSW 02:31:49 10° ESE visible
05 Jul - 04:17:15 10° WNW 04:26:10 39° SW 04:34:48 10° SSE daylight
05 Jul - 06:26:58 10° WSW 06:28:46 11° WSW 06:30:34 10° SW daylight
05 Jul - 19:39:29 10° S 19:46:11 20° SE 19:52:54 10° E daylight
05 Jul - 21:39:47 10° SW 21:49:30 53° SSE 21:59:09 10° ENE visible
05 Jul - 23:43:53 10° WSW 23:54:07 81° S 00:04:07 10° E visible
06 Jul - 01:49:00 10° W 01:59:07 75° SSW 02:08:54 10° ESE visible
06 Jul - 03:54:14 10° WNW 04:03:18 41° SW 04:12:05 10° SSE visible
06 Jul - 06:02:51 10° WSW 06:05:59 12° WSW 06:09:07 10° SW daylight
06 Jul - 19:17:03 10° SSE 19:23:22 19° SE 19:29:42 10° E daylight
06 Jul - 21:16:56 10° SW 21:26:35 51° SSE 21:36:12 10° ENE visible
06 Jul - 23:20:56 10° WSW 23:31:09 81° S 23:41:11 10° E visible
07 Jul - 01:26:02 10° W 01:36:11 77° SSW 01:46:01 10° ESE visible
07 Jul - 03:31:14 10° WNW 03:40:25 43° SW 03:49:20 10° SSE visible
07 Jul - 05:39:11 10° W 05:43:13 13° WSW 05:47:12 10° SSW daylight
07 Jul - 18:54:38 10° SSE 19:00:33 17° SE 19:06:28 10° E daylight
07 Jul - 20:54:06 10° SW 21:03:41 49° SE 21:13:13 10° ENE daylight
07 Jul - 22:57:58 10° WSW 23:08:11 80° SSE 23:18:13 10° E visible
08 Jul - 01:03:03 10° W 01:13:13 78° SSW 01:23:05 10° ESE visible
08 Jul - 03:08:13 10° WNW 03:17:33 45° SW 03:26:34 10° SSE visible
08 Jul - 05:15:42 10° W 05:20:25 15° WSW 05:25:05 10° SSW daylight
08 Jul - 18:32:17 10° SSE 18:37:43 16° SE 18:43:10 10° E daylight
08 Jul - 20:31:18 10° SSW 20:40:46 47° SE 20:50:15 10° ENE daylight
08 Jul - 22:35:01 10° WSW 22:45:13 79° SSE 22:55:17 10° E visible
